Regional Weather Roundup
Issued by NWS

Home | Current Version | Previous Version | Graphics & Text | Print | Product List | Glossary On
Versions: 1 2 3 4 5 6 7 8 9 10 11 12 13 14 15 16 17 18 19 20 21 22 23 24 25 26 27 28 29 30 31 32 33 34 35 36 37 38 39 40 41 42 43 44 45 46 47 48 49 50
000
ASUS43 KBIS 050310
RWRND

NORTH DAKOTA REGIONAL WEATHER ROUNDUP
NATIONAL WEATHER SERVICE BISMARCK ND
1000 PM CDT SAT JUL 04 2015

NOTE: "FAIR" INDICATES FEW OR NO CLOUDS BELOW 12,000 FEET WITH NO
SIGNIFICANT WEATHER AND/OR OBSTRUCTIONS TO VISIBILITY.


NDZ001>003-009>011-017-050400-
NORTHWEST NORTH DAKOTA

CITY           SKY/WX    TMP DP  RH WIND       PRES   REMARKS
WILLISTON      CLEAR     75  68  78 N12       29.77R
MINOT          TSTM      70  60  70 N15       29.75R
MINOT AFB      TSTM      68  68 100 SE13      29.71F
$$

NDZ018>021-031>035-040>046-050400-
SOUTHWEST NORTH DAKOTA

CITY           SKY/WX    TMP DP  RH WIND       PRES   REMARKS
BISMARCK       CLOUDY    79  71  76 E5        29.74R
DICKINSON      PTCLDY    75  65  70 S6        29.74S
GARRISON         N/A     72  67  84 NE7       29.74R
HETTINGER ARPT CLOUDY    77  69  76 SE7       29.77F
$$

NDZ004>008-012>016-024-026-027-054-050400-
NORTHEAST NORTH DAKOTA

CITY           SKY/WX    TMP DP  RH WIND       PRES   REMARKS
GRAND FORKS    CLOUDY    77  67  71 SE10      29.73R
GRND FRKS AFB  CLOUDY    77  68  74 S10       29.73S
DEVILS LAKE    CLOUDY    81  64  57 SW14      29.69F
$$

NDZ022-023-025-028>030-036>039-047>053-050400-
SOUTHEAST NORTH DAKOTA

CITY           SKY/WX    TMP DP  RH WIND       PRES   REMARKS
FARGO          PTCLDY    78  65  63 S10       29.78R
JAMESTOWN      CLOUDY    76  69  79 S10       29.76S
$$




USA.gov is the U.S. government's official web portal to all federal, state and local government web resources and services.